Regional Weather Roundup
Issued by NWS Cleveland, OH

Home | Current Version | Previous Version | Graphics & Text | Print | Product List | Glossary On
Versions: 1 2 3 4 5 6 7 8 9 10 11 12 13 14 15 16 17 18 19 20 21 22 23 24 25 26 27 28 29 30 31 32 33 34 35 36 37 38 39 40 41 42 43 44 45 46 47 48 49 50
270
ASUS41 KCLE 241402
RWRCLE
OHIO REGIONAL WEATHER ROUNDUP
NATIONAL WEATHER SERVICE CLEVELAND, OH
1000 AM EDT MON APR 24 2017

NOTE: "FAIR" INDICATES FEW OR NO CLOUDS BELOW 12,000 FEET WITH NO
SIGNIFICANT WEATHER AND/OR OBSTRUCTIONS TO VISIBILITY.

OHZ001>008-015>018-024>027-034-035-043-044-241500-
   NORTHWEST OHIO

CITY           SKY/WX    TMP DP  RH WIND       PRES   REMARKS
DEFIANCE       SUNNY     53  38  56 NE10      30.05S
FINDLAY        SUNNY     58  34  40 E14       30.01F
TOLEDO EXPRESS SUNNY     56  35  45 E13       30.05S
TOLEDO EXEC    SUNNY     56  37  49 NE13G21   30.06F
LIMA           SUNNY     56  37  49 NE12      30.00F
$$

OHZ009>014-019>023-028>033-038-089-241500-
   NORTHEAST OHIO

CITY           SKY/WX    TMP DP  RH WIND       PRES   REMARKS
CLE-HOPKINS    SUNNY     61  32  33 NE10      30.07S
CLE-LAKEFRONT  SUNNY     54  43  66 NE12      30.04F
CUY CO. ARPT   SUNNY     63  34  34 E8        30.06S
LORAIN-ELYRIA  SUNNY     57  37  47 NE9       30.05S
ASHTABULA      SUNNY     57  32  38 E7        30.08F
AKRON-CANTON   MOSUNNY   60  34  37 E10       30.03F
WOOSTER        SUNNY     58  37  45 E9        30.03F
MANSFIELD      SUNNY     59  31  34 E13       30.02S
YOUNGSTOWN     MOSUNNY   61  31  32 E15       30.05F
$$

OHZ042-051>053-060>062-070>072-077>081-241500-
  SOUTHWEST OHIO

CITY           SKY/WX    TMP DP  RH WIND       PRES   REMARKS
CINC-COVINGTON MOSUNNY   58  39  49 NE10      29.93S
CINC-LUNKEN    SUNNY     59  44  57 NE7       29.94F
HAMILTON       SUNNY     59  41  51 E14       29.96F
DAYTON         MOSUNNY   60  34  37 NE14      29.97F
WRIGHT-PAT AFB SUNNY     60  36  40 E15       29.96F
DAYTON GENERAL SUNNY     58  38  47 E13       29.95S
WILMINGTON     SUNNY     56  42  59 NE10      29.94F
$$

OHZ036-037-039>041-045>050-054>059-063>069-073>076-082>088-241500-
  CENTRAL AND SOUTHEAST OHIO

CITY           SKY/WX    TMP DP  RH WIND       PRES   REMARKS
COLUMBUS       MOSUNNY   61  41  47 E10       29.96S
OSU AIRPORT    SUNNY     59  40  49 NE10      29.97S
BOLTON FIELD   SUNNY     59  39  47 NE10      29.97S
RICKENBACK AFB SUNNY     58  41  53 NE12      29.96S
NEWARK         SUNNY     61  39  44 E10       29.97S
MARION         SUNNY     62  30  29 E15       30.00F
LANCASTER      SUNNY     61  42  49 E12       29.96F
ZANESVILLE     SUNNY     60  39  45 NE9       29.98S
NEW PHILLY     NOT AVBL
$$




USA.gov is the U.S. government's official web portal to all federal, state and local government web resources and services.